GFSNE_250_rhum_078.txt.gz
RH
100 100 100 100 100 100 100 100 100 100 100 100 100 87 83 66 57 49 46 42 40 27 31 30 32 38 44 48 48 50 55 52 49 37 29 26 19 15
100 100 100 100 100 100 100 100 100 100 100 100 100 96 74 59 50 52 47 38 28 30 32 29 35 39 45 54 55 59 58 60 53 44 38 34 27 18
100 100 100 100 100 100 100 100 100 100 100 100 98 78 64 60 52 43 38 32 30 32 31 33 36 43 46 57 66 72 79 70 58 51 46 39 38 33
100 100 100 100 100 100 100 100 100 100 98 94 83 67 54 53 44 41 35 34 34 33 36 37 42 45 47 62 64 70 71 68 63 56 52 49 46 54
100 100 100 100 100 100 100 100 88 84 94 77 72 60 42 42 35 41 40 43 39 39 44 43 47 50 53 64 71 71 63 55 53 57 58 56 58 57
45 52 62 71 72 66 71 74 76 75 85 73 63 45 39 40 48 51 53 43 45 44 48 53 57 60 58 58 57 58 59 64 65 65 68 72 69 67
37 42 48 49 48 52 59 75 89 78 71 70 45 40 49 64 66 58 51 46 48 48 61 63 66 70 70 67 65 68 69 66 64 65 71 73 77 83
34 42 39 42 43 50 68 88 97 72 71 41 40 62 74 82 71 74 58 56 60 56 57 70 72 72 73 72 75 72 69 69 67 65 65 65 72 80
39 29 29 34 36 73 76 83 68 52 43 46 76 87 100 82 79 72 68 61 64 61 56 60 70 74 78 82 84 80 78 73 68 66 64 64 64 66
28 28 31 43 58 70 58 57 53 46 57 70 98 100 100 90 83 74 68 68 72 70 69 65 69 76 79 80 81 81 76 70 66 62 61 63 64 65
27 27 28 44 48 50 42 50 54 66 88 100 100 100 96 88 83 72 66 72 77 73 76 74 78 79 80 82 82 84 78 70 67 66 63 54 48 49
29 34 34 38 40 51 54 57 76 98 100 100 94 99 89 93 82 74 68 75 74 78 72 69 73 78 80 82 84 82 80 78 75 70 50 38 35 32
36 37 45 48 53 58 64 76 94 100 100 98 100 95 96 95 78 72 72 75 74 74 74 73 74 75 76 80 81 83 79 76 63 40 36 34 32 31
40 44 48 60 69 77 93 100 100 100 100 100 100 99 99 88 80 76 75 79 77 79 84 81 79 81 83 84 82 74 70 55 38 35 31 25 23 22
47 57 68 88 100 99 100 100 100 100 100 100 100 100 92 89 83 82 90 85 80 86 88 84 82 85 84 81 77 66 48 33 32 26 23 21 19 19
74 78 82 93 96 100 100 100 100 100 100 100 99 94 96 87 88 96 91 83 88 89 85 81 83 82 80 78 67 48 36 33 24 21 20 20 20 20
87 87 95 100 100 100 100 100 100 100 100 100 93 92 96 91 95 92 90 90 89 84 79 80 80 82 85 73 50 36 30 24 22 20 22 22 21 21
98 99 100 100 100 100 100 100 100 99 91 89 89 98 96 95 93 91 91 88 85 81 83 81 85 88 80 53 39 30 22 23 21 22 23 23 20 21
100 100 100 98 92 87 83 82 84 89 94 96 92 92 97 99 90 88 85 83 79 81 80 86 90 85 62 48 33 21 21 21 24 23 23 23 22 23
99 100 100 99 98 98 98 94 91 90 90 95 100 100 98 95 96 92 84 80 84 82 86 91 83 64 49 38 25 20 20 22 22 23 23 27 31 32
100 99 96 98 98 97 96 98 99 99 100 100 100 100 98 100 95 86 87 90 87 89 94 80 63 48 39 26 23 21 20 22 24 26 30 36 39 34
100 100 100 100 100 100 99 99 100 100 100 100 100 100 100 99 90 94 94 90 91 92 80 65 49 40 26 22 23 24 22 20 24 35 35 29 23 18
100 100 100 100 100 100 100 100 100 98 98 100 100 99 99 98 95 94 95 96 91 78 66 50 42 27 22 22 28 29 25 28 30 21 13 18 18 16

GFSNE_250_rhum_081.txt.gz
RH
100 100 100 100 100 100 100 100 100 100 100 100 100 100 100 100 94 93 83 62 50 46 53 36 26 26 24 27 32 40 47 51 53 53 52 55 49 38
100 100 100 100 100 100 100 100 100 100 99 100 100 100 95 75 55 57 47 60 54 53 49 27 26 28 27 32 33 42 47 53 60 58 58 60 49 42
100 100 100 100 100 100 100 100 100 100 100 79 57 48 44 45 42 49 56 69 67 50 34 31 35 31 34 40 40 44 48 57 65 68 65 55 51 45
97 94 93 93 100 100 100 82 61 39 32 30 40 42 38 47 53 67 73 69 49 49 45 42 42 38 42 46 50 57 61 68 66 58 54 53 52 52
27 29 37 42 45 35 32 30 33 30 32 38 36 41 42 43 54 77 71 59 56 62 52 51 48 49 46 51 59 59 61 60 63 66 67 65 66 66
27 27 28 28 28 27 29 31 30 35 32 37 36 39 35 57 81 70 54 74 72 73 73 59 53 52 54 56 64 68 66 69 72 75 74 72 67 64
25 27 28 27 26 30 33 34 32 33 31 49 34 41 58 80 70 54 76 81 86 95 74 63 62 59 54 56 59 63 70 72 72 69 70 75 77 75
27 28 31 33 32 32 32 34 33 32 34 35 38 42 79 72 66 70 94 100 100 92 80 73 68 63 67 69 66 68 72 74 74 76 81 80 77 73
30 30 30 29 31 32 33 33 31 31 33 32 34 75 76 78 79 95 100 99 91 82 80 77 72 66 73 73 71 69 69 71 72 73 74 74 73 73
29 29 30 33 34 34 34 31 27 30 33 46 51 64 78 86 99 100 100 86 84 78 82 73 75 74 73 74 71 69 72 71 72 72 71 70 70 68
28 31 30 31 32 36 38 32 33 34 40 57 64 73 91 100 100 100 94 92 83 88 80 76 75 74 73 70 72 76 74 76 75 74 74 74 73 72
27 27 28 32 36 36 36 38 39 47 53 58 74 90 100 100 100 100 92 91 94 96 87 79 77 78 79 79 78 75 74 75 77 77 76 77 75 67
32 34 39 42 43 42 44 48 50 56 63 79 93 100 100 100 100 100 100 92 98 99 81 78 84 84 81 84 85 79 77 80 78 76 77 73 59 42
31 34 39 39 41 43 49 52 63 74 87 88 100 100 100 100 100 100 100 99 95 91 78 83 90 90 87 86 82 78 81 82 80 82 76 55 37 31
34 38 40 46 55 59 65 78 83 100 98 100 100 100 100 100 100 100 99 94 87 82 84 93 93 90 88 88 80 80 81 77 83 80 57 37 32 27
54 51 56 63 70 78 83 92 98 100 100 100 100 100 100 99 95 96 88 82 86 90 95 100 98 92 91 86 85 83 83 82 80 60 40 32 24 20
83 85 85 85 85 92 94 98 99 100 100 100 100 100 100 91 84 84 84 88 94 97 100 100 96 94 90 86 88 86 86 87 71 44 37 24 19 19
89 91 95 97 97 98 99 100 100 100 98 93 91 96 99 96 95 92 92 97 99 98 97 92 95 95 94 90 92 90 90 76 49 40 27 22 19 20
90 90 92 92 96 99 98 95 96 94 93 97 100 100 100 100 100 99 100 97 100 99 94 91 95 99 100 99 97 88 75 51 42 26 22 23 24 20
100 97 97 94 98 96 94 95 94 95 95 92 92 92 95 96 95 95 96 100 99 93 100 99 97 100 100 100 98 72 51 42 29 22 22 28 31 28
100 100 94 90 93 95 100 100 100 100 100 100 100 98 97 100 98 96 98 98 94 100 100 94 96 99 98 98 92 61 42 29 23 25 37 46 40 34
99 99 100 100 98 97 99 100 100 100 100 100 100 100 100 100 100 100 100 99 97 100 100 97 98 94 92 85 68 54 36 21 24 43 53 47 32 23
91 89 88 91 96 100 100 100 100 100 100 100 100 100 100 100 100 100 100 97 100 96 91 98 97 94 82 65 56 46 24 23 36 61 37 22 20 17

GFSNE_250_rhum_087.txt.gz
RH
99 96 100 91 90 100 100 100 99 99 86 100 97 72 51 50 37 33 31 32 31 32 31 33 35 35 36 37 41 46 66 47 55 43 42 46 48 58
100 90 96 100 100 100 95 90 88 91 75 78 56 39 38 34 32 34 34 34 34 34 34 37 39 38 37 42 45 57 62 61 59 48 49 53 55 48
100 100 100 100 97 95 100 98 100 66 35 31 32 32 32 34 34 33 32 34 34 35 37 40 39 39 40 48 60 68 64 71 60 53 50 56 61 65
100 100 92 97 100 58 44 33 30 30 35 36 33 30 31 31 32 33 34 35 36 38 41 41 40 38 47 66 75 82 68 80 59 60 56 56 59 70
100 100 100 57 30 28 26 26 27 29 31 32 31 29 33 34 34 36 37 36 38 40 43 41 43 42 64 84 89 83 90 81 66 65 60 64 67 64
32 32 31 29 28 27 28 28 28 28 29 31 33 34 35 32 35 38 37 38 39 40 40 43 43 50 84 96 97 100 93 80 77 72 71 64 66 70
29 30 28 26 27 26 26 27 28 29 32 30 29 31 30 30 33 32 36 34 41 44 45 44 57 75 87 98 100 100 89 79 79 80 76 70 65 66
29 29 27 26 26 26 26 30 30 21 20 20 21 22 25 26 29 31 36 43 42 42 48 72 76 82 95 100 100 100 87 75 77 84 81 80 79 74
30 30 31 30 26 22 18 18 19 19 19 18 19 20 22 27 30 34 38 45 52 58 78 80 89 92 100 100 100 99 87 85 82 84 81 76 78 82
20 18 17 16 16 16 16 15 15 17 18 20 22 23 26 32 37 40 49 61 71 87 90 93 92 100 100 100 100 100 100 91 86 86 83 79 82 82
17 16 16 16 15 17 17 19 21 23 25 24 28 32 38 40 41 52 68 72 87 94 97 98 100 100 100 100 100 100 93 88 87 91 85 86 84 88
20 20 18 19 20 20 21 23 28 30 33 35 38 45 49 53 61 70 81 91 96 99 100 100 100 100 100 100 100 98 91 88 96 89 89 87 88 88
28 27 25 24 24 24 24 27 29 34 38 41 45 46 55 69 81 86 90 91 100 100 100 100 100 100 100 100 100 100 89 90 98 96 91 86 90 92
28 27 29 29 27 26 28 33 39 43 51 56 59 60 67 84 86 90 96 100 100 100 100 100 99 94 96 100 100 95 95 100 97 95 91 89 90 88
40 38 35 38 43 43 46 51 59 64 70 80 82 86 88 92 97 99 100 100 100 100 100 95 95 93 98 96 98 100 100 95 95 96 84 88 87 92
52 53 58 61 64 68 75 79 82 82 83 88 92 95 100 100 100 100 100 100 100 100 100 100 100 100 100 100 94 90 93 98 94 87 92 90 93 96
60 61 74 80 85 85 82 82 86 92 99 100 100 100 100 100 100 100 100 100 100 100 100 100 100 100 100 99 97 92 88 78 86 95 96 96 95 97
65 62 75 85 89 91 89 93 99 100 100 100 100 99 97 98 100 100 100 100 100 100 100 100 99 98 99 96 94 91 86 82 89 96 92 90 86 85
76 77 78 85 92 94 91 93 99 100 100 98 95 94 93 98 99 97 100 100 100 100 100 100 100 100 100 95 94 94 88 94 96 89 92 97 93 82
97 91 91 94 97 97 97 99 100 100 100 99 98 95 93 90 92 94 94 99 99 100 100 100 100 100 99 100 96 91 95 99 94 92 95 97 95 92
100 100 98 98 98 100 100 100 100 100 100 100 100 97 92 90 89 82 80 80 82 84 87 89 94 98 100 100 98 94 91 99 98 97 88 87 94 91
93 98 100 100 97 98 100 100 100 100 100 100 99 98 99 100 100 100 100 99 98 97 96 96 97 100 100 100 98 92 90 89 97 92 74 74 75 79
94 98 100 100 100 100 100 100 100 100 97 98 96 97 93 89 84 84 82 75 74 74 71 67 68 70 72 77 80 80 70 72 70 67 61 60 65 72

GFSNE_250_rhum_090.txt.gz
RH
100 100 100 99 84 71 94 86 100 100 100 100 100 100 92 84 100 62 33 32 35 33 35 36 36 38 37 41 44 46 45 40 46 59 61 52 42 42
98 96 82 74 68 89 100 100 100 100 100 100 94 96 57 39 33 32 32 31 32 33 36 38 38 41 42 46 46 48 50 42 57 76 74 67 48 46
81 67 74 98 100 100 100 100 100 99 99 99 89 68 30 31 32 31 32 32 32 33 39 40 39 41 48 46 46 52 48 52 73 84 75 75 54 58
98 100 100 100 100 100 97 87 100 82 73 85 38 31 28 30 29 30 30 34 34 30 30 35 42 48 46 50 50 49 57 76 86 94 90 78 62 63
100 100 100 100 97 98 94 85 82 58 34 29 29 25 25 28 28 30 33 33 32 28 34 37 39 39 45 48 54 55 69 95 97 100 96 82 74 72
100 90 92 98 100 82 40 36 31 28 27 23 23 24 24 27 27 25 26 24 25 26 26 31 35 39 47 53 56 69 87 99 99 100 97 89 76 80
100 99 51 31 34 30 29 28 26 24 24 22 23 26 24 20 21 22 22 22 22 24 27 32 41 42 46 54 62 88 95 100 100 100 100 90 85 81
40 31 30 30 29 28 25 25 25 23 23 22 16 19 19 19 20 20 20 21 24 32 34 40 50 53 57 65 80 99 100 100 100 100 100 97 100 86
35 32 32 32 30 28 26 23 16 14 15 15 16 17 17 17 19 22 25 30 36 41 46 52 58 60 75 87 89 98 100 100 100 100 100 100 100 91
32 30 28 25 20 15 14 15 15 15 14 16 17 19 21 22 28 35 39 36 40 47 57 63 69 81 87 95 100 100 100 100 100 100 100 100 98 94
17 16 16 15 16 14 15 16 18 22 21 24 24 24 28 30 36 40 48 55 60 65 69 78 84 88 96 100 100 100 100 100 100 100 100 99 100 94
16 16 16 16 18 21 24 25 24 23 22 23 24 26 31 36 41 46 54 60 66 67 83 91 95 95 97 100 100 100 100 100 100 100 100 100 100 100
19 23 26 29 30 26 22 22 22 26 28 30 32 34 38 42 47 53 68 77 81 89 95 98 99 100 98 97 99 100 98 100 100 100 100 100 100 100
22 23 22 24 25 26 27 32 37 39 42 43 47 52 55 56 59 68 74 81 89 96 100 100 100 100 100 99 97 98 100 100 100 100 100 100 99 100
25 27 29 32 34 34 42 48 55 54 54 63 71 76 76 78 81 83 88 93 98 99 99 99 99 100 100 100 100 100 100 100 100 100 97 96 100 96
42 50 57 65 57 52 57 70 77 77 74 76 78 82 87 91 95 100 99 100 100 100 100 100 100 96 97 97 100 100 100 100 100 100 100 100 95 90
74 73 74 73 69 66 68 75 72 68 76 85 93 96 96 98 100 99 98 96 97 99 100 100 100 100 98 94 95 97 100 100 100 100 99 90 91 95
70 65 68 70 70 74 75 78 76 74 85 89 92 92 93 95 95 92 92 93 99 100 100 100 100 100 100 100 100 97 95 93 99 100 100 99 94 97
58 61 63 75 76 82 85 85 84 86 89 91 96 99 97 94 93 93 95 93 93 98 98 98 99 98 100 98 96 98 90 90 96 96 97 97 95 89
65 59 68 83 92 94 97 95 90 90 96 98 98 95 91 90 90 91 95 100 99 92 89 88 87 89 88 91 95 94 90 93 97 96 97 100 99 95
69 74 77 86 92 95 96 97 96 97 100 100 98 99 99 98 98 99 100 97 94 94 92 88 93 94 96 100 99 97 95 95 94 98 97 100 100 98
72 79 82 80 82 92 100 100 100 100 100 100 100 100 97 98 97 100 100 100 100 100 97 93 88 88 82 76 70 68 69 65 67 75 80 90 94 85
84 80 81 87 87 86 91 99 100 99 99 100 100 100 100 100 100 98 100 99 95 91 81 75 67 55 44 38 39 36 35 32 29 32 33 38 51 60

GFSNE_250_rhum_093.txt.gz
RH
100 100 100 100 99 85 97 100 100 97 98 100 98 91 90 100 100 76 99 100 70 36 34 33 32 33 34 34 39 37 45 49 53 53 48 47 50 52
94 72 100 90 100 100 100 100 100 95 87 100 99 76 100 100 100 93 82 35 31 35 32 31 34 35 34 29 31 37 43 46 51 55 53 54 66 68
94 99 100 99 93 100 98 100 100 97 98 100 85 96 100 75 90 77 30 31 31 32 33 35 34 31 29 27 32 38 37 43 54 64 61 68 87 81
100 100 100 100 71 82 99 100 100 100 87 70 65 67 74 100 76 32 30 30 32 33 34 32 27 24 27 29 29 32 37 43 65 71 75 82 96 94
75 77 88 84 100 100 100 100 100 100 72 66 78 80 93 78 33 31 29 30 27 25 23 22 24 24 26 27 28 34 39 45 65 81 84 97 99 100
100 100 100 100 99 100 98 97 70 62 66 66 33 35 38 34 30 28 26 20 19 19 20 20 21 23 25 29 32 38 49 62 71 96 97 100 100 100
100 100 100 100 86 85 79 83 88 68 42 36 34 34 30 28 20 18 18 19 18 19 20 23 24 25 33 36 44 48 55 68 83 100 100 100 100 100
94 76 62 70 92 100 95 76 40 35 36 33 31 27 19 17 16 16 16 17 20 26 26 26 30 37 42 46 62 57 58 72 91 100 100 100 100 100
100 100 91 78 63 48 40 34 31 31 31 26 19 17 16 16 17 19 21 21 26 29 37 44 48 60 65 60 65 74 81 88 100 100 100 100 100 100
47 39 33 28 25 25 26 28 29 24 18 16 17 17 20 22 19 18 20 23 26 30 42 56 62 73 78 71 73 83 96 100 100 100 100 100 100 100
22 23 25 26 25 24 25 21 18 17 18 20 23 22 19 18 21 22 23 25 30 40 53 62 69 75 84 87 95 97 100 100 100 100 100 100 100 100
25 24 23 21 20 18 17 17 18 24 23 23 21 20 21 22 24 26 29 30 36 43 57 68 79 90 95 96 100 100 100 100 100 100 100 100 100 100
19 18 18 17 17 19 23 24 24 20 21 24 25 26 28 29 32 38 43 47 51 60 68 84 90 94 98 98 100 100 100 100 100 100 98 95 93 95
19 18 20 25 27 26 23 20 24 26 30 38 39 39 44 45 48 56 63 69 70 76 78 79 87 94 99 100 100 100 100 100 99 100 100 99 98 99
29 30 32 28 24 25 28 30 42 59 68 65 54 57 54 54 58 66 73 81 87 92 93 95 97 100 100 100 98 94 95 100 100 100 100 100 100 100
28 28 27 28 30 42 60 72 76 83 85 74 65 67 68 75 74 71 76 78 83 87 88 88 91 94 93 92 94 99 97 93 96 98 96 95 94 92
33 34 35 50 73 86 90 91 80 79 77 74 74 74 85 86 83 82 84 87 92 95 95 95 100 99 100 100 99 100 100 100 100 100 98 99 100 98
64 68 77 83 87 89 85 80 74 77 81 78 78 82 85 87 90 91 94 94 96 97 93 91 94 100 97 98 98 100 100 100 100 98 97 95 92 95
91 93 90 92 82 72 66 65 69 80 89 91 92 95 95 92 92 93 96 97 97 96 94 92 92 97 100 97 96 92 89 94 99 100 100 100 97 92
95 92 90 84 80 79 76 76 79 81 86 92 95 98 100 99 97 95 94 94 92 89 88 89 94 99 93 90 87 82 84 90 95 97 100 100 99 97
99 92 87 85 81 82 77 82 86 87 89 92 96 95 96 100 99 99 100 100 100 97 96 96 99 100 99 97 94 91 89 87 83 87 92 95 97 98
99 96 91 86 84 84 84 86 92 97 98 97 95 95 98 99 95 98 98 99 100 99 98 100 100 100 92 89 87 81 65 54 48 44 41 43 47 48
100 100 100 89 84 89 94 94 95 100 100 100 100 100 99 96 94 94 99 100 100 100 99 100 98 93 87 86 75 55 49 58 56 50 41 40 41 41

GFSNE_250_rhum_096.txt.gz
RH
100 100 100 100 99 100 100 100 100 100 100 99 94 93 98 72 63 80 100 100 100 93 95 85 43 39 43 36 38 39 38 37 34 37 41 41 40 46
99 100 100 100 100 86 96 97 100 75 96 100 87 67 81 64 90 100 100 100 96 69 87 59 35 36 34 33 31 28 29 33 31 36 40 39 46 54
100 100 100 94 100 98 97 100 100 100 89 97 72 72 79 79 100 90 95 78 71 79 69 30 33 30 26 24 24 28 29 31 33 40 40 41 55 70
100 100 94 97 100 100 100 100 100 92 78 61 64 100 100 100 100 88 48 54 40 28 29 30 21 19 18 21 24 26 30 35 32 39 43 56 72 83
100 100 100 100 100 100 96 82 78 74 87 55 92 93 80 69 65 52 55 30 23 24 23 18 17 19 21 22 28 32 33 36 39 42 61 63 89 98
99 95 100 100 100 100 100 78 60 60 70 62 47 49 64 45 40 36 23 21 21 17 15 16 18 20 24 30 36 42 45 48 50 51 73 75 91 100
100 100 100 100 100 79 66 54 95 83 48 53 52 52 78 48 22 21 21 17 15 14 15 18 22 28 36 45 51 53 58 68 71 64 84 96 98 100
59 58 64 74 68 52 78 71 70 68 54 54 62 46 27 19 23 20 16 13 14 18 18 17 22 28 37 47 62 78 77 81 86 82 93 97 100 100
54 75 100 94 98 84 66 65 62 64 77 45 26 20 24 21 17 16 15 18 18 16 16 21 24 31 42 54 76 90 91 94 93 96 100 100 100 100
100 96 100 100 100 86 71 70 80 48 27 21 22 21 19 17 16 16 20 17 18 19 21 24 29 36 52 75 89 92 96 100 100 100 100 100 100 100
80 83 89 82 70 79 67 45 27 20 22 21 20 18 17 18 22 20 18 20 21 23 27 30 35 48 59 74 88 98 100 100 100 100 100 100 100 100
66 66 63 61 59 43 27 21 20 21 21 18 18 19 24 25 21 22 25 28 27 30 36 38 42 54 68 82 91 99 100 100 100 100 100 100 100 100
43 44 39 33 25 21 20 21 20 19 20 21 26 29 26 24 29 38 40 39 36 39 48 54 59 64 71 83 88 95 100 100 100 100 100 100 100 100
26 24 22 21 21 20 20 20 21 25 29 35 31 28 28 43 57 59 51 51 54 57 61 64 66 76 82 86 90 96 100 100 100 100 100 100 100 100
24 24 24 24 22 21 23 28 32 36 33 31 30 41 64 68 71 66 64 66 72 74 74 77 78 82 87 92 94 98 100 100 100 100 100 100 100 100
29 29 26 27 28 35 37 35 32 32 33 36 57 83 85 78 76 68 69 73 79 82 87 88 93 96 95 95 95 95 96 99 100 100 98 100 99 99
45 46 47 50 51 46 40 37 38 46 58 81 89 87 84 76 79 79 81 83 85 86 87 88 93 95 92 90 94 97 96 96 95 95 96 97 97 96
77 70 65 61 53 52 55 58 76 85 94 97 93 85 82 83 88 87 90 97 95 97 96 96 100 100 100 99 97 98 97 97 98 98 98 95 93 95
91 84 77 65 67 76 81 95 100 100 100 95 78 73 76 83 81 82 94 100 100 100 100 98 99 100 99 96 96 96 99 99 100 100 100 100 100 98
95 95 92 84 91 96 100 100 100 100 97 95 85 86 88 85 86 90 96 97 98 100 100 100 100 100 97 96 95 95 100 96 93 92 92 95 97 93
93 94 98 98 100 100 100 100 100 100 100 99 94 93 89 94 96 96 98 100 100 100 100 100 100 99 93 93 91 92 92 93 90 91 93 92 92 87
95 96 99 100 100 100 100 100 100 100 100 100 97 94 95 97 99 100 99 98 100 100 100 100 100 100 100 100 100 100 96 88 86 83 83 80 69 52
98 100 100 100 100 100 100 100 100 100 100 100 100 100 100 100 100 99 100 100 100 100 100 100 100 100 100 100 100 96 90 83 78 75 72 57 49 57

GFSNE_250_rhum_099.txt.gz
RH
56 68 84 81 100 93 100 100 75 95 100 100 100 100 91 92 99 100 100 98 99 97 85 50 84 68 39 23 25 23 22 23 21 24 23 29 29 36
100 95 100 84 100 100 95 100 95 100 100 100 100 98 97 100 100 100 87 81 93 93 70 43 55 39 20 23 21 19 20 19 20 24 24 26 32 37
100 97 100 100 100 100 100 100 95 83 92 100 97 91 100 100 100 85 79 87 90 76 52 47 44 20 18 18 16 15 16 19 21 26 27 28 37 45
100 100 100 100 100 100 100 98 100 100 98 74 100 100 99 100 86 82 74 74 52 50 50 35 17 18 16 14 14 17 20 26 32 31 35 40 43 58
100 100 100 100 100 100 96 92 70 100 100 100 100 100 98 78 100 74 47 43 66 51 37 15 16 14 12 13 16 18 24 32 40 42 43 51 53 63
100 100 98 100 100 100 100 100 100 95 97 75 64 90 92 90 81 44 71 61 58 31 18 17 14 12 13 15 15 18 23 35 42 50 58 57 67 71
100 100 100 100 100 100 100 99 90 77 69 80 77 86 84 65 44 50 60 53 31 16 18 16 12 14 16 14 16 18 24 38 51 61 72 76 89 96
100 98 87 86 70 73 85 97 92 85 73 65 55 45 52 67 55 59 33 27 19 18 16 13 16 17 16 17 19 21 29 41 54 74 82 82 93 100
98 86 70 68 55 76 67 56 70 67 69 78 75 65 74 66 67 44 28 18 18 16 15 20 19 18 19 20 22 26 34 51 64 80 90 93 100 100
100 79 80 72 94 100 100 94 86 87 84 55 67 88 78 63 46 21 18 18 16 18 23 21 21 25 24 23 24 30 45 58 81 92 94 99 100 100
66 67 74 68 73 87 100 79 100 98 76 82 74 63 45 24 20 18 18 16 19 27 24 27 34 32 28 30 30 39 51 64 80 94 100 100 100 100
72 78 92 100 100 95 75 86 85 98 96 66 28 26 23 19 19 19 19 25 30 25 31 43 42 37 38 40 44 52 65 83 94 98 100 100 100 100
86 76 85 99 100 97 97 94 78 47 37 23 22 22 21 21 21 24 28 30 27 34 50 53 45 41 45 51 61 72 78 83 96 100 100 100 100 100
100 100 100 98 83 56 47 40 32 26 23 24 23 22 22 24 29 31 30 29 37 58 64 58 54 54 53 62 77 83 90 95 94 100 100 100 98 99
58 54 45 38 35 33 30 28 27 26 26 25 24 28 33 35 34 34 35 44 67 70 69 65 65 67 68 76 85 92 98 99 100 100 100 100 100 100
28 29 31 31 32 32 30 33 32 34 35 36 43 41 40 36 39 47 66 84 83 74 80 75 76 78 83 83 86 91 95 100 100 99 100 100 100 100
36 40 43 44 45 50 52 57 58 52 53 57 54 49 44 48 60 82 92 94 90 78 83 84 87 90 92 93 93 93 93 94 96 100 100 100 100 100
50 56 66 76 86 88 89 83 76 73 72 69 59 60 66 83 98 100 100 89 77 77 84 91 96 97 99 96 94 98 100 100 99 98 98 98 95 94
70 73 81 89 89 90 92 92 80 82 84 80 80 90 88 98 100 100 100 90 85 88 90 94 97 100 99 97 98 98 100 100 100 100 100 100 100 98
61 74 85 86 89 93 95 97 91 89 93 98 98 98 95 96 100 99 100 96 93 94 98 97 97 100 100 100 100 97 100 95 99 100 100 100 100 98
54 73 79 89 92 93 96 100 99 96 99 100 100 100 100 99 97 97 99 97 97 98 100 100 99 99 98 95 96 98 94 98 99 98 99 100 99 95
51 73 76 80 83 88 96 100 99 98 100 100 100 100 100 99 96 91 95 98 100 100 100 100 100 100 100 100 100 100 100 98 100 100 100 100 97 93
46 60 78 87 87 93 100 100 100 100 100 100 100 100 100 100 100 100 100 100 100 100 100 100 100 100 98 98 100 100 100 99 99 100 100 100 96 96

GFSNE_250_rhum_102.txt.gz
RH
99 85 83 86 77 65 60 62 64 89 82 82 77 82 95 100 100 100 100 100 100 100 100 100 93 93 98 66 50 48 37 15 16 14 14 15 18 20
100 100 100 75 77 65 50 59 66 89 88 99 100 100 86 97 90 100 100 100 100 99 94 100 89 86 75 56 47 29 14 14 12 12 15 18 23 26
85 97 91 88 81 84 61 73 88 100 100 100 100 100 99 88 100 100 99 92 99 100 100 85 97 85 58 49 34 14 13 11 13 16 18 23 32 34
73 63 77 80 99 100 100 100 100 100 98 100 100 100 100 78 78 100 100 100 85 75 67 60 58 61 50 29 18 12 11 14 15 14 17 24 31 39
100 100 100 100 100 100 100 100 100 100 99 100 100 100 100 100 100 90 77 71 64 60 62 95 80 51 30 21 13 11 14 15 13 15 17 22 36 44
100 100 100 100 100 92 100 100 90 80 100 100 100 95 83 100 62 74 83 82 74 58 67 59 48 31 17 13 11 14 16 14 16 17 18 23 37 51
100 100 100 100 100 100 100 100 100 98 82 100 95 100 71 98 94 100 100 82 67 86 57 44 28 17 14 13 13 17 14 18 18 19 21 33 50 57
100 100 100 100 100 100 100 100 100 100 100 98 89 88 62 100 86 68 83 63 64 51 47 24 18 15 14 14 18 16 21 22 20 20 25 35 48 64
69 89 100 100 100 100 100 100 100 100 83 87 79 74 83 100 94 84 69 71 57 54 26 18 16 16 18 20 19 22 28 23 22 25 35 48 61 75
100 100 100 100 100 100 100 100 100 100 87 89 68 77 88 79 87 56 55 60 50 26 19 18 16 19 24 23 24 32 30 26 26 26 42 56 72 87
100 100 100 100 100 100 100 94 100 78 80 86 78 64 83 76 78 72 48 44 20 20 19 17 21 27 28 31 35 38 33 32 33 36 50 62 76 91
100 100 97 100 100 98 100 99 96 90 78 96 87 94 73 63 66 43 36 24 21 20 19 24 31 30 34 49 49 43 37 38 42 46 59 80 92 95
100 99 100 99 100 98 99 90 87 84 61 52 79 96 74 71 40 27 23 24 23 24 28 32 32 36 56 68 61 53 48 45 54 60 67 80 96 94
64 70 79 79 70 78 74 68 60 61 65 82 71 58 38 31 26 25 26 29 32 35 35 36 38 57 73 76 67 64 60 57 62 73 83 84 94 99
17 18 23 31 34 30 36 44 41 45 41 37 39 36 31 33 33 34 35 41 42 40 40 46 58 77 84 81 71 66 64 68 70 74 81 87 94 100
20 23 25 26 28 31 33 35 36 37 42 44 46 43 44 51 48 49 54 54 52 50 58 74 86 93 90 85 83 82 80 79 80 86 91 93 89 91
25 26 28 34 40 46 48 52 56 64 65 70 74 73 70 65 66 68 66 62 64 76 90 97 98 94 85 85 92 93 96 94 92 91 93 91 92 92
18 22 27 33 45 57 72 72 76 79 84 88 87 85 77 83 83 83 80 76 89 96 100 100 95 92 93 94 93 98 100 100 100 100 98 98 100 98
13 18 22 26 41 54 75 82 83 87 91 93 91 93 96 96 94 94 94 98 100 100 100 96 95 93 100 98 98 100 99 100 99 100 99 99 98 95
9 12 18 24 42 60 80 86 90 92 93 97 98 100 100 100 100 99 100 100 100 100 98 95 98 100 98 97 100 100 100 96 91 91 94 95 93 94
9 13 16 24 36 56 74 86 94 96 100 100 100 100 100 100 100 100 100 100 100 100 100 97 99 99 99 99 99 98 98 100 100 96 95 96 100 99
10 13 19 22 28 46 72 81 94 100 99 100 100 100 100 100 100 100 100 100 100 100 100 100 100 100 99 98 98 100 98 100 100 98 98 98 96 98
10 12 18 20 26 37 67 81 90 97 99 94 93 100 100 100 100 100 100 100 100 100 100 96 98 100 100 100 100 100 100 100 93 99 99 98 95 92

GFSNE_250_rhum_105.txt.gz
RH
100 99 100 100 100 100 88 74 79 77 77 92 84 67 72 76 49 68 81 98 100 100 100 100 100 99 100 72 76 84 95 88 44 30 12 11 11 12
100 97 94 91 80 90 88 95 79 100 99 76 66 68 57 50 91 60 74 90 100 100 99 98 100 100 61 92 84 98 54 42 33 15 11 10 12 14
89 74 58 60 96 100 97 100 100 81 96 83 72 74 73 98 99 100 100 100 100 100 100 100 100 72 89 100 95 71 50 35 18 10 11 13 14 14
100 100 100 79 100 100 99 87 89 78 57 82 85 80 100 100 97 100 100 100 96 100 89 96 75 73 98 91 75 54 42 21 10 11 13 14 14 14
100 98 97 97 98 90 100 74 82 86 82 92 100 100 100 100 100 100 100 100 100 92 97 100 88 88 98 83 58 36 20 11 11 14 15 14 16 16
98 97 98 100 100 100 88 94 100 100 100 99 93 100 97 86 92 100 95 100 83 99 97 85 87 98 70 61 40 34 12 12 13 16 15 19 19 18
100 100 100 100 100 100 100 86 68 100 100 100 78 100 100 100 100 99 79 94 91 90 99 88 95 86 64 66 26 12 13 14 16 16 21 22 20 21
100 100 100 98 100 100 100 100 100 100 100 100 100 100 100 100 100 100 100 72 90 100 91 90 90 79 79 36 16 13 16 18 19 18 28 22 20 26
78 84 85 93 79 83 100 100 100 100 100 100 100 100 100 90 98 99 93 97 95 100 100 87 85 77 53 21 17 16 20 21 20 27 29 24 24 36
100 100 100 100 100 100 100 100 100 100 100 100 100 100 100 100 100 100 92 92 100 99 99 89 72 56 20 17 21 24 25 24 25 34 30 28 27 39
100 100 100 100 100 99 100 100 100 100 98 100 100 100 92 100 95 100 100 100 79 87 75 61 54 24 20 23 28 32 28 26 39 40 33 32 37 40
95 96 94 73 99 98 100 99 100 96 100 100 100 99 98 100 96 100 98 76 59 83 43 26 24 24 26 33 36 38 33 38 49 46 38 38 42 50
67 49 59 65 54 62 61 68 82 81 67 72 78 69 70 78 64 64 58 59 44 32 31 29 28 30 35 44 44 44 50 58 58 53 48 47 53 67
22 22 22 20 16 16 18 27 26 45 55 54 46 53 63 52 52 53 60 40 40 38 36 35 40 42 52 54 45 58 70 83 74 66 59 55 58 67
20 25 21 17 16 18 21 21 23 28 31 40 38 42 49 56 60 57 64 59 56 52 49 54 55 56 59 54 56 84 95 95 87 82 76 70 69 73
16 16 13 13 15 20 29 34 29 32 38 42 43 53 60 67 73 82 88 81 80 73 75 72 72 66 65 73 87 98 100 98 93 91 90 84 83 81
6 7 8 10 12 16 23 28 33 43 44 46 56 69 79 88 92 94 98 93 88 92 88 87 81 81 91 97 100 100 100 97 96 99 100 95 92 91
4 5 6 8 10 14 22 30 39 48 64 70 77 81 90 95 98 100 100 97 97 100 100 97 97 99 100 100 100 100 100 97 100 100 100 100 99 98
5 6 7 7 10 12 20 25 39 59 64 70 76 83 91 98 100 100 100 100 100 100 100 100 100 100 100 100 98 100 100 95 96 98 100 100 100 100
4 5 6 8 10 14 26 36 42 49 48 68 83 92 99 100 100 100 100 100 100 100 100 100 100 100 100 100 99 100 100 93 90 92 100 99 100 100
4 5 6 7 8 11 17 23 25 31 54 80 92 100 100 100 100 100 100 100 100 100 100 100 100 100 96 99 96 100 100 100 96 90 95 100 100 100
4 4 5 6 7 8 12 16 26 40 69 90 95 100 100 100 100 100 100 100 100 97 100 100 100 100 100 100 100 97 92 96 100 99 96 98 98 97
4 4 5 6 7 9 11 19 34 47 62 83 92 95 96 100 100 100 100 100 100 100 100 100 100 100 100 100 98 95 91 98 100 99 95 98 98 98

GFSNE_250_rhum_108.txt.gz
RH
100 100 100 100 100 100 100 100 100 100 100 99 93 76 72 84 98 100 73 69 58 63 64 64 82 96 97 100 100 100 100 100 100 98 90 59 42 17
100 100 96 97 94 100 100 99 100 100 100 100 97 70 73 100 100 100 96 64 56 64 85 97 83 97 94 100 100 100 98 100 79 71 74 78 33 14
87 97 79 89 89 95 92 100 100 98 100 96 98 98 100 100 99 87 65 86 58 97 99 100 96 95 100 93 100 100 100 100 88 70 70 46 20 12
100 96 74 99 100 96 100 100 100 100 98 100 100 100 99 87 76 64 56 100 49 100 86 94 77 94 99 100 100 93 76 74 86 89 73 39 13 12
99 90 100 100 100 100 100 100 100 100 100 98 82 80 69 65 74 72 62 100 99 94 98 98 77 100 100 100 100 77 90 74 78 97 51 31 14 14
100 95 92 95 100 88 88 83 93 76 84 88 79 88 77 78 70 79 100 84 99 100 100 100 100 89 93 88 59 82 100 82 95 72 27 15 15 16
100 100 91 100 96 100 99 100 100 95 80 92 74 87 93 100 100 100 100 100 100 100 100 84 97 84 96 82 96 73 93 99 63 41 19 14 19 18
100 100 100 100 100 100 100 100 100 100 100 100 100 100 100 100 96 100 100 93 100 100 100 100 83 100 96 94 96 100 99 78 41 22 17 17 20 24
100 100 100 100 100 100 100 100 100 100 100 100 100 100 81 100 100 100 97 100 100 100 94 97 100 98 99 96 100 91 65 41 22 20 20 22 22 32
100 100 100 100 100 100 100 100 100 100 100 100 100 100 94 100 100 100 96 91 100 100 99 100 100 100 99 95 94 54 40 26 24 24 27 25 29 37
76 90 94 99 94 100 100 100 100 100 100 100 100 100 100 100 100 100 100 100 87 82 81 76 72 93 87 82 59 47 29 30 33 33 32 31 39 42
75 76 63 63 63 25 42 53 70 72 68 67 76 89 78 80 69 66 59 81 81 86 67 42 93 78 57 54 50 37 36 42 46 42 38 39 55 48
52 27 25 24 21 21 21 30 30 27 24 34 34 44 55 55 64 44 56 60 48 39 56 46 53 48 55 49 48 46 52 61 56 47 47 55 66 57
18 20 28 29 28 27 26 25 24 19 18 21 31 37 33 37 28 35 36 36 42 49 52 49 49 57 59 61 66 64 73 70 62 59 65 74 76 68
6 12 12 12 14 18 21 26 28 27 24 31 37 35 34 33 40 35 36 41 57 55 57 61 72 72 76 89 85 84 87 76 72 81 89 96 84 78
3 3 4 4 5 6 10 12 13 20 32 36 35 34 41 36 33 37 52 65 62 70 80 90 84 87 94 97 99 98 92 88 93 97 100 100 97 90
3 4 4 4 4 5 5 6 8 12 16 20 26 35 61 27 45 54 65 73 87 93 99 97 100 96 100 100 100 100 100 100 100 100 100 100 100 100
5 5 5 4 4 4 5 6 8 10 12 18 34 52 55 59 63 66 79 90 96 99 100 100 100 100 100 100 100 100 100 100 100 100 100 100 100 100
5 6 6 6 5 4 5 5 6 8 11 19 44 53 66 71 66 84 89 97 97 100 100 100 100 97 100 100 100 100 100 100 100 100 100 99 100 99
5 6 7 7 6 4 4 5 7 8 12 17 27 44 63 66 80 90 93 92 98 100 100 100 100 100 100 100 98 99 100 100 100 100 100 100 98 97
6 7 7 7 7 5 4 6 7 9 13 20 40 57 67 64 75 90 93 97 100 100 100 100 100 100 100 97 92 96 100 100 100 100 100 100 100 100
6 7 8 8 7 6 5 5 8 10 16 26 47 58 56 61 90 96 98 100 100 100 99 100 100 100 100 100 97 99 99 100 100 100 100 100 99 97
6 7 8 8 8 6 5 6 9 12 20 26 34 38 51 71 86 98 100 100 100 100 100 100 100 100 100 98 96 100 100 100 100 99 98 100 100 100

GFSNE_250_rhum_111.txt.gz
RH
59 58 63 64 95 100 100 100 100 100 100 99 100 100 82 83 74 99 98 100 100 98 89 93 84 74 83 62 49 53 66 80 84 85 82 100 100 67
81 100 100 100 100 99 99 100 100 100 100 93 81 100 100 100 100 100 100 100 100 100 100 100 99 86 67 52 54 76 100 76 93 100 100 100 90 80
100 100 100 97 94 100 100 96 90 98 99 95 59 69 68 100 87 96 86 98 100 100 100 88 85 50 55 75 88 93 100 100 98 91 89 95 99 93
100 100 100 100 100 99 100 100 83 99 72 74 75 85 82 81 100 97 89 92 100 90 61 60 62 73 85 83 100 100 100 100 94 62 84 84 100 77
100 100 100 100 100 100 98 94 100 100 86 91 96 99 81 89 86 87 91 82 76 75 99 94 100 94 96 100 100 99 93 91 94 76 100 97 89 54
100 100 99 100 100 100 100 100 100 100 100 100 100 100 100 100 100 100 97 100 100 100 100 100 100 100 100 100 94 92 76 92 95 99 100 72 38 34
100 100 100 100 100 100 100 100 100 100 88 99 100 100 100 100 100 100 100 100 100 100 100 100 100 100 100 78 86 76 90 95 99 67 74 32 28 23
100 100 100 100 100 100 100 100 100 100 100 100 100 98 100 100 100 100 100 100 98 100 99 100 100 100 100 100 100 91 99 99 75 61 32 23 24 25
100 100 100 100 100 100 100 100 100 100 100 100 100 100 100 100 100 100 100 100 100 100 100 100 95 100 100 100 100 100 98 77 36 40 32 26 28 27
100 100 100 100 100 100 100 100 98 100 99 100 100 100 100 100 100 100 100 100 100 100 92 90 100 100 100 89 75 87 87 56 36 37 31 29 30 33
87 99 93 78 68 62 53 61 49 56 59 56 60 60 63 81 77 81 78 65 68 65 47 84 84 82 80 66 75 91 73 52 38 40 33 33 38 43
62 58 44 31 28 34 38 44 32 42 36 37 37 31 57 61 64 70 60 40 41 40 47 66 89 66 62 72 84 86 53 43 42 39 40 42 49 51
36 35 32 28 24 22 23 23 25 27 26 26 25 30 37 42 42 35 36 35 41 39 38 72 64 64 80 86 65 49 45 53 49 51 50 58 66 54
20 16 14 12 12 11 10 11 15 18 20 21 26 30 31 34 34 35 43 47 48 45 48 53 66 66 53 49 46 52 60 66 72 68 71 76 78 62
3 4 3 3 3 3 4 4 4 4 6 8 16 21 24 25 33 43 48 56 54 51 53 48 58 58 46 48 74 79 88 91 87 86 95 87 77 83
4 4 4 3 3 3 3 3 4 4 4 5 6 8 11 16 22 31 38 52 50 53 52 56 53 53 71 84 91 97 98 98 96 100 100 95 82 90
4 4 4 4 4 3 4 4 4 4 4 4 6 7 8 10 15 26 38 54 56 55 57 60 68 78 89 99 100 100 100 100 98 100 100 100 98 97
3 4 4 4 4 4 5 6 6 6 6 5 5 6 8 11 16 27 36 44 45 44 61 74 83 92 100 100 100 100 100 100 99 100 100 100 100 100
3 3 4 4 4 5 6 7 7 8 8 7 6 7 9 12 17 25 32 40 55 62 80 90 96 100 100 100 100 100 100 99 100 100 99 98 100 100
3 3 3 4 5 6 7 7 8 9 9 8 7 7 9 12 20 31 48 64 63 81 90 94 99 100 100 100 100 100 98 100 100 100 98 98 100 100
3 3 4 5 5 6 7 8 9 9 9 8 6 8 11 16 24 40 67 64 71 89 96 97 97 98 100 100 97 96 100 97 100 100 100 100 97 99
3 4 5 5 6 7 8 9 9 10 9 7 8 9 13 20 34 57 68 74 68 90 97 100 100 100 100 100 97 99 100 94 99 100 100 100 100 98
3 4 6 6 7 7 8 9 10 10 9 8 8 10 13 21 31 58 63 68 91 100 100 100 100 100 100 100 93 99 100 100 99 99 100 100 100 100

GFSNE_250_rhum_114.txt.gz
RH
100 100 100 100 100 100 100 100 100 94 75 77 81 81 100 87 88 100 87 78 62 62 82 94 100 100 100 85 84 97 65 76 80 59 77 53 85 71
100 100 100 100 100 100 100 96 88 85 100 100 100 88 93 100 86 80 76 79 66 86 99 100 79 71 83 70 62 71 74 86 65 68 63 68 94 78
100 100 100 100 100 100 98 90 100 100 100 100 100 100 92 91 66 96 99 96 91 76 67 69 89 97 76 97 80 80 75 90 100 75 81 76 67 96
100 99 91 83 80 85 98 82 68 100 79 100 96 100 100 100 97 84 98 75 69 98 80 99 88 68 80 88 85 82 100 98 80 100 100 92 81 74
100 98 97 95 99 100 100 100 100 100 100 100 100 100 96 96 96 96 81 96 97 100 100 94 87 100 100 100 100 100 100 100 100 98 93 100 100 94
100 100 100 100 100 98 97 95 92 88 85 98 100 100 100 100 100 100 100 100 100 100 100 100 98 100 100 100 100 100 99 100 100 100 100 100 100 95
100 100 99 100 100 100 100 100 100 100 100 100 100 100 100 100 100 100 100 100 100 100 100 100 100 100 100 100 100 100 100 100 100 100 99 71 85 82
100 100 100 100 100 100 100 100 99 100 100 100 100 100 100 100 100 100 100 100 100 100 100 100 100 100 100 100 100 100 100 100 100 90 56 67 67 61
100 100 100 100 100 100 100 100 98 96 96 90 97 97 98 95 98 100 100 100 100 100 100 100 100 100 100 98 100 94 100 95 93 57 55 64 50 47
100 100 100 97 89 78 82 86 83 70 60 57 52 49 49 53 54 61 64 72 90 84 96 100 100 92 72 73 69 64 80 77 57 52 61 53 48 48
63 62 55 52 46 42 39 42 36 41 45 39 36 39 42 36 36 40 58 63 50 52 62 68 59 61 79 72 77 85 78 67 61 62 56 55 48 44
55 52 51 51 48 45 32 31 29 29 30 27 23 21 22 35 29 32 38 38 42 43 44 48 48 55 57 66 59 80 70 65 69 66 56 60 53 48
48 47 44 43 40 33 25 18 13 11 10 9 7 6 11 13 12 29 30 32 34 37 42 50 54 57 65 67 63 73 74 84 75 67 60 56 59 51
34 28 22 12 8 5 4 4 4 4 5 5 5 5 6 5 6 10 18 17 17 30 45 50 51 56 60 72 64 71 82 74 71 62 64 59 65 74
39 32 17 7 5 4 3 3 3 4 4 4 4 4 5 6 4 8 9 10 13 20 30 42 57 60 66 63 77 77 82 70 70 75 67 80 86 93
50 32 9 5 4 3 2 2 3 3 4 4 4 4 4 4 5 7 7 10 13 20 30 42 50 54 60 68 70 76 64 69 83 81 89 97 100 100
41 20 6 4 3 2 2 2 3 3 4 4 5 5 5 6 6 6 8 9 12 18 24 33 45 54 58 64 80 71 74 90 91 95 100 100 100 100
32 11 4 4 3 2 2 3 3 3 4 4 5 6 7 8 8 8 9 9 12 16 22 32 49 56 68 82 77 84 94 97 100 100 100 100 100 100
26 7 4 3 2 2 3 3 3 4 4 5 6 7 8 9 9 9 9 10 12 17 24 33 43 64 83 90 90 97 100 100 100 100 98 100 100 100
18 5 4 3 2 3 3 3 4 5 6 7 7 8 9 11 11 11 10 11 14 18 28 37 58 74 90 97 97 100 100 100 100 99 98 100 100 100
14 5 4 3 3 3 3 4 6 6 7 8 8 10 10 11 11 11 10 10 14 21 31 41 46 70 92 98 100 100 100 100 99 100 97 100 95 99
9 5 4 3 3 3 4 6 6 7 7 8 9 10 11 11 11 9 8 10 19 22 31 44 67 95 100 100 100 100 100 100 100 100 96 100 100 95
7 6 4 4 4 4 5 6 7 7 8 8 9 10 11 11 10 8 11 15 29 32 48 72 84 100 97 100 100 100 100 100 100 100 96 100 100 100

GFSNE_250_rhum_117.txt.gz
RH
94 100 100 100 100 100 100 100 100 100 100 100 100 100 100 100 100 100 100 87 73 82 84 74 87 85 87 100 99 100 73 64 54 87 72 72 67 52
100 100 100 100 100 100 100 100 100 100 100 100 100 100 100 100 100 99 98 99 100 100 97 71 62 83 100 98 95 81 83 45 75 80 68 71 69 66
100 100 100 100 100 100 100 100 100 100 96 96 100 100 93 96 97 100 97 100 96 78 59 61 92 98 93 61 63 76 57 78 71 73 88 100 85 89
78 100 100 100 100 100 100 100 100 100 100 100 100 96 93 90 82 75 89 80 94 98 100 100 97 61 51 69 64 81 71 96 97 90 91 84 88 99
100 100 100 100 100 100 100 100 95 95 93 82 75 70 58 53 56 74 100 100 100 97 68 58 82 85 95 98 100 99 100 89 93 79 98 100 95 95
100 100 100 100 100 94 93 96 89 80 84 77 80 83 88 78 91 92 87 78 81 92 100 100 100 100 100 100 100 100 100 100 100 99 99 98 100 100
100 100 100 100 100 100 100 100 100 99 99 98 100 100 100 100 100 100 100 100 95 100 100 100 100 100 100 100 100 100 100 100 100 100 93 99 98 99
100 100 100 100 100 100 100 96 100 100 100 100 100 100 100 100 100 96 89 82 73 81 78 92 94 95 100 100 100 100 100 100 100 100 100 92 70 72
98 98 100 100 96 89 78 72 75 63 59 42 40 47 44 41 44 43 38 37 40 46 56 57 52 47 54 92 100 100 100 100 100 100 96 68 73 71
57 63 51 50 48 48 47 49 52 50 52 48 43 42 41 45 40 36 35 34 37 48 47 54 50 47 44 48 51 59 53 52 89 96 83 54 56 68
52 53 55 58 58 62 65 65 63 60 56 50 46 45 40 36 31 27 18 19 30 25 32 28 38 45 42 43 45 51 56 66 72 64 51 45 55 62
67 68 62 58 63 66 66 55 46 38 34 32 22 17 14 11 9 7 8 8 7 8 10 15 26 32 32 45 46 51 60 74 84 67 59 61 66 72
63 59 56 58 61 51 43 40 31 21 14 9 6 4 4 4 4 4 4 5 6 7 10 9 13 16 26 30 44 53 64 67 78 72 66 73 75 79
54 52 54 55 49 44 40 34 22 13 7 4 3 3 3 3 3 3 4 5 5 7 10 10 12 12 15 24 38 55 69 79 90 80 68 74 80 72
43 40 45 48 42 45 40 30 17 6 4 3 2 2 2 3 3 4 4 5 6 6 9 11 14 12 10 15 25 52 74 73 87 76 76 86 78 74
41 45 50 51 50 45 31 20 9 4 3 3 2 2 3 3 3 4 4 5 6 8 9 10 11 10 13 21 34 46 60 77 77 88 82 81 77 77
54 51 54 51 44 42 24 12 5 4 3 3 2 3 3 3 4 4 5 6 7 8 9 8 13 14 17 25 34 44 61 74 80 81 88 87 84 88
50 53 51 40 37 32 18 8 4 4 3 3 3 3 3 3 4 4 5 6 7 8 10 11 11 18 21 32 48 64 71 72 81 87 87 92 93 99
55 54 45 35 28 20 13 5 4 4 3 3 3 4 5 6 6 6 7 8 10 10 11 12 14 16 23 36 54 58 76 79 82 88 96 98 97 100
50 50 41 33 23 16 10 4 5 4 4 4 4 5 6 7 8 8 9 10 10 11 12 12 14 18 25 35 39 62 74 82 90 98 100 100 100 100
57 47 35 31 19 16 7 5 5 4 4 4 5 7 8 8 9 10 11 12 13 14 14 14 15 19 28 44 70 82 88 86 96 100 100 100 100 100
60 46 36 22 18 13 6 5 5 4 4 5 7 8 9 9 10 11 12 13 14 14 14 14 16 23 37 67 88 90 94 99 100 100 100 100 99 100
55 40 27 18 17 11 6 6 4 4 5 7 8 8 9 9 10 12 13 14 14 14 14 14 17 29 59 78 87 94 98 100 100 100 100 98 100 100

GFSNE_250_rhum_120.txt.gz
RH
53 57 52 33 53 62 69 67 93 100 100 100 100 100 100 100 100 100 100 98 100 91 100 97 86 98 100 94 89 80 66 90 99 99 90 89 88 61
43 24 27 40 50 47 63 87 94 100 100 100 100 100 100 100 100 100 100 100 97 100 100 100 90 87 90 91 86 70 86 81 82 77 100 58 44 46
24 35 41 44 77 91 96 100 100 100 100 100 100 100 100 100 100 100 100 100 100 100 100 100 100 95 84 73 59 49 59 68 98 76 60 78 76 65
60 77 93 100 100 100 100 100 100 100 100 100 100 99 100 100 100 100 100 100 97 100 90 87 89 95 78 60 68 85 91 95 99 93 100 93 95 93
100 100 100 100 100 100 100 100 99 99 98 87 85 88 86 76 68 76 62 49 62 57 54 58 56 62 84 100 100 100 100 100 100 100 100 100 99 100
100 100 100 100 100 100 100 100 100 98 97 100 96 94 94 93 96 100 100 100 100 100 100 100 100 100 100 100 100 100 100 100 100 100 100 100 100 100
99 100 100 100 100 100 100 100 100 94 82 78 90 95 100 100 100 100 84 60 54 57 58 52 47 48 43 42 46 45 47 60 62 64 83 100 100 100
100 100 100 100 100 100 100 100 100 100 73 66 64 65 56 47 47 44 47 52 58 50 50 45 52 50 42 37 48 52 56 54 53 56 58 90 97 93
100 100 100 92 89 94 79 68 53 48 43 43 50 59 54 57 57 51 54 60 58 55 57 54 44 49 46 37 44 53 52 52 53 61 57 76 83 77
66 60 61 58 53 53 52 48 50 59 64 54 52 57 55 52 49 39 35 32 32 30 26 30 24 28 23 19 19 36 40 45 61 67 49 64 68 66
55 52 53 53 52 56 65 71 62 54 52 51 50 50 47 43 39 30 27 21 17 13 9 8 6 8 8 9 11 13 27 34 52 62 59 64 73 81
57 56 56 64 70 68 65 65 53 44 41 47 54 45 39 30 19 16 11 6 4 4 5 5 7 8 8 9 12 10 10 14 30 47 60 84 90 91
58 55 62 66 62 63 60 53 49 40 39 46 50 42 27 16 12 9 5 4 4 3 4 4 5 5 6 11 12 10 10 12 19 27 42 63 88 92
62 67 68 66 70 61 53 48 42 40 38 42 35 27 16 11 10 4 4 3 3 3 3 4 4 6 7 12 15 12 12 11 13 16 29 44 58 64
64 65 64 62 57 52 46 41 35 37 42 47 37 19 11 10 5 4 3 3 3 4 4 4 4 6 9 9 11 14 20 18 15 16 29 47 65 73
66 63 55 49 47 40 39 46 44 42 45 42 23 11 10 6 4 3 3 3 3 4 4 5 5 7 7 10 12 16 16 15 18 28 42 56 72 73
68 59 51 50 50 62 62 49 40 43 47 26 11 9 8 4 4 3 3 4 4 4 4 5 6 7 9 12 14 15 13 18 30 43 46 54 64 76
63 58 54 59 61 66 59 44 43 50 29 14 8 10 5 4 3 3 4 5 6 6 6 7 7 8 9 10 11 13 16 23 38 40 47 61 79 81
55 50 54 67 64 64 57 52 46 44 19 10 11 6 5 4 4 4 5 7 8 8 7 8 8 9 9 10 14 18 26 35 41 51 60 75 83 84
54 62 62 78 75 70 59 45 41 23 12 10 11 6 5 4 4 6 8 8 9 10 10 10 10 11 12 12 16 20 30 40 51 59 76 82 89 93
72 68 72 74 76 61 43 39 27 14 11 12 8 6 5 5 6 8 9 10 11 12 12 12 12 13 16 17 19 23 29 42 55 72 83 87 92 95
74 73 68 76 55 44 44 33 20 11 12 12 6 6 5 6 8 9 10 10 12 13 14 15 16 18 18 20 20 32 29 52 68 78 78 87 96 100
69 86 65 54 47 36 30 30 12 11 12 7 7 5 5 8 9 9 10 11 13 14 15 16 18 19 20 19 28 35 48 72 74 78 80 99 100 100

GFSNE_250_rhum_123.txt.gz
RH
57 62 44 52 56 55 52 45 45 54 42 32 47 59 76 96 100 100 100 100 100 100 100 100 100 100 100 100 100 100 100 100 100 100 100 100 98 88
60 67 60 64 71 66 60 52 49 22 38 51 67 90 100 100 97 100 100 100 100 100 100 100 100 99 93 97 97 96 92 99 97 76 73 78 86 90
65 80 81 77 74 60 52 34 30 46 82 100 100 100 100 100 100 100 100 97 100 100 98 92 91 87 82 83 85 76 85 95 83 79 100 100 100 100
65 64 71 62 51 42 39 48 77 87 78 99 100 100 100 100 100 100 100 100 87 74 62 53 53 66 68 67 74 83 94 99 100 100 99 100 100 100
42 42 45 40 44 57 84 100 100 100 100 97 97 100 100 100 99 87 84 100 87 78 80 93 89 98 95 86 69 60 60 60 56 53 53 55 51 54
37 46 71 88 99 94 94 100 100 100 100 100 100 100 100 100 100 91 78 91 86 87 69 52 46 45 52 62 51 58 55 51 50 56 54 57 57 58
97 97 99 100 100 100 100 100 100 100 100 100 100 100 99 96 100 100 90 54 45 46 50 49 58 58 57 58 52 55 56 42 49 50 56 39 60 59
100 100 100 100 100 100 100 100 100 100 100 100 99 83 97 51 49 45 47 46 46 48 44 47 43 43 40 36 37 38 42 42 31 39 47 46 43 55
100 100 100 100 100 100 100 100 100 100 100 90 58 49 50 50 50 53 55 49 48 43 39 40 42 33 27 26 27 22 34 25 16 22 30 31 30 49
100 100 100 83 76 65 64 69 62 46 46 50 46 45 44 49 52 52 54 52 47 43 43 28 25 21 18 16 17 14 14 12 12 15 20 25 27 42
80 64 70 66 58 55 48 48 48 50 52 51 54 58 58 54 58 60 56 46 39 38 40 22 15 12 12 9 6 4 8 10 11 9 11 20 21 39
59 54 61 54 47 47 47 47 46 50 54 57 64 60 55 58 61 53 50 40 34 30 16 9 8 7 4 6 4 4 6 7 9 11 11 18 22 38
64 52 48 50 49 50 48 49 50 53 65 66 68 68 61 58 51 42 33 29 16 9 8 8 6 4 4 4 4 4 4 6 8 10 12 16 21 26
50 54 56 57 55 54 56 58 60 64 60 61 65 63 53 46 38 29 26 20 9 7 9 5 4 4 4 4 4 4 4 6 10 14 14 18 20 23
54 56 60 60 62 63 63 64 65 62 62 69 66 52 45 40 34 29 26 12 10 9 5 4 4 3 4 5 5 5 5 6 7 10 12 14 18 26
63 60 61 62 61 63 62 62 64 65 66 64 59 50 56 46 31 31 15 9 10 6 5 4 4 4 5 5 5 6 6 6 7 9 12 13 14 22
62 60 56 56 60 64 63 63 63 68 70 74 64 61 51 34 27 19 10 10 8 5 4 4 5 6 6 6 7 6 6 6 9 14 14 15 26 35
59 57 56 60 58 60 64 69 72 78 77 60 66 56 40 28 19 11 11 10 6 5 5 6 7 8 7 6 7 7 8 8 16 15 15 21 42 48
59 70 68 65 69 73 74 77 78 75 59 80 48 38 29 16 14 9 13 8 6 5 7 8 10 9 8 8 8 9 11 12 13 15 19 36 54 44
58 58 57 52 43 48 62 68 70 65 55 50 30 27 20 13 9 10 10 7 6 7 9 8 10 10 9 9 10 11 12 15 18 21 32 45 42 46
28 27 30 31 32 32 45 57 52 46 48 31 23 15 14 12 9 12 8 8 6 9 10 10 11 11 12 12 12 13 16 22 26 28 28 43 55 76
24 26 31 31 24 25 28 30 28 28 26 19 14 14 12 8 13 9 8 6 9 10 10 12 12 12 13 14 15 16 19 21 24 29 40 54 70 81
16 20 22 18 14 18 20 19 17 14 12 13 14 11 8 11 10 8 7 7 10 10 11 12 13 14 16 17 19 22 23 24 31 36 54 60 65 71

GFSNE_250_rhum_126.txt.gz
RH
31 34 37 47 52 50 50 53 55 62 71 78 76 76 69 72 56 40 48 78 93 100 100 100 100 100 100 100 100 100 100 98 90 87 79 68 60 53
32 35 41 41 44 51 56 54 62 75 78 72 75 74 67 48 38 43 63 75 84 92 91 87 89 90 82 79 80 83 90 84 67 71 90 94 88 92
14 28 44 50 53 60 59 64 67 76 72 73 62 51 57 56 83 87 71 67 77 83 95 98 95 97 87 92 92 85 94 92 86 84 58 48 50 51
14 20 31 43 51 52 51 56 59 63 55 48 57 58 78 81 70 76 92 100 100 100 100 100 100 100 100 100 100 100 91 49 47 49 44 56 58 60
14 18 24 30 34 41 46 46 50 42 46 63 81 89 78 86 100 100 100 100 100 100 100 100 100 100 100 95 61 45 48 50 53 50 51 49 44 46
14 16 23 28 36 48 70 80 72 77 75 63 67 95 99 100 100 100 100 100 100 100 100 100 91 67 47 46 46 49 54 58 56 53 51 46 44 38
37 44 53 66 78 90 81 84 98 97 100 100 100 100 100 100 100 100 100 100 100 100 100 70 51 48 44 45 53 56 61 58 55 52 45 40 27 24
78 100 100 100 97 100 100 100 100 100 100 100 100 100 100 100 100 100 99 83 90 49 50 47 49 52 54 59 58 61 62 58 52 39 28 26 18 19
100 99 100 100 100 100 100 100 100 100 100 100 100 100 92 88 91 68 50 44 50 47 45 48 55 60 63 61 58 58 48 35 24 16 11 14 15 16
100 100 100 100 100 100 100 100 100 100 100 94 88 70 54 50 50 49 46 43 40 43 50 48 49 55 62 62 56 38 24 13 8 9 14 12 10 9
100 100 100 100 100 100 100 100 100 69 67 72 54 47 43 43 41 38 38 41 51 57 57 44 57 66 58 49 35 16 9 7 8 7 7 6 8 9
100 98 91 83 82 84 75 67 82 61 52 50 44 46 43 42 39 40 41 48 54 60 54 54 62 53 44 39 15 8 7 6 5 5 4 5 6 7
63 57 57 56 52 50 49 47 47 48 52 52 53 53 50 50 52 54 60 59 57 52 47 49 47 36 27 10 8 7 5 4 4 4 4 5 6 7
60 63 58 49 49 50 50 49 51 50 50 49 48 50 56 60 61 61 58 54 45 48 48 31 22 18 10 7 8 5 4 4 4 4 5 5 6 8
56 56 57 56 54 54 53 50 48 47 47 47 46 50 54 55 55 58 62 56 55 38 29 18 17 12 7 9 5 4 4 5 5 5 6 6 8 10
63 60 59 58 57 55 51 47 44 43 43 46 48 46 48 55 57 58 50 48 39 31 17 15 14 10 9 6 5 5 5 7 6 6 6 7 10 14
72 72 70 71 63 56 52 48 44 40 39 42 41 44 45 46 51 48 46 39 31 16 12 14 10 9 8 6 6 6 8 8 6 7 7 8 12 19
64 72 73 62 51 45 37 28 25 22 23 26 26 32 32 38 27 27 29 24 15 11 12 11 9 9 7 6 8 8 10 8 7 8 10 13 16 24
48 46 36 30 28 23 18 18 20 19 20 22 30 31 29 21 24 21 16 12 11 11 10 8 10 7 6 8 9 10 10 9 8 10 13 14 17 20
26 20 16 15 16 15 14 15 15 18 20 21 19 16 16 16 12 11 10 10 11 9 7 10 8 7 7 10 11 11 10 10 10 12 12 14 18 26
23 18 16 12 10 11 12 12 12 13 14 13 10 11 11 10 9 9 9 12 8 7 10 8 7 7 10 10 12 12 11 12 13 16 14 16 20 32
15 14 12 11 11 10 8 9 8 7 7 8 8 10 11 10 8 10 10 7 7 10 8 8 7 9 10 11 13 14 13 14 15 16 20 21 28 36
7 7 7 6 6 6 6 7 7 7 8 9 10 9 9 10 10 8 7 7 10 7 8 6 9 11 11 12 15 15 16 18 19 18 22 25 33 40

GFSNE_250_rhum_129.txt.gz
RH
7 7 8 10 13 20 26 33 48 62 65 56 60 72 66 64 65 66 70 69 65 60 51 40 62 83 89 92 90 77 67 78 86 78 81 95 100 100
8 8 8 9 9 12 21 31 39 42 62 66 58 67 68 66 68 70 72 60 60 51 54 66 91 78 68 67 84 100 100 100 100 100 100 100 100 97
8 10 10 9 10 10 11 15 24 33 48 47 43 55 61 66 66 65 62 55 57 74 82 80 68 87 100 100 100 100 100 100 100 90 93 85 52 54
10 12 9 11 11 12 12 14 14 15 19 27 35 46 56 57 67 70 61 66 64 71 71 100 100 100 100 100 100 100 100 96 100 100 100 53 56 58
12 13 14 14 14 15 14 14 17 20 28 37 50 57 63 72 66 68 71 80 70 100 100 100 100 100 100 100 100 100 100 98 92 76 52 53 55 59
14 17 16 16 17 17 23 31 47 58 64 64 74 87 86 86 94 99 100 100 100 100 100 100 100 100 100 100 100 92 87 60 55 53 52 50 52 62
32 40 50 58 62 73 80 83 100 100 100 100 100 100 96 99 100 100 100 100 100 100 100 100 100 100 90 81 64 53 54 54 50 47 48 55 59 63
100 78 76 70 83 99 100 89 100 100 100 100 100 100 100 100 100 100 100 100 100 100 100 100 100 59 56 55 53 50 46 42 42 46 50 52 61 67
100 92 94 100 100 100 100 100 100 100 100 100 100 99 100 100 100 100 100 97 89 94 91 86 70 54 55 52 46 44 43 45 50 51 48 57 64 59
100 100 100 100 100 100 100 100 100 100 100 100 100 100 92 83 91 98 98 99 95 65 53 54 52 50 46 43 43 45 47 50 51 53 56 44 32 19
100 100 100 100 100 100 100 100 100 100 100 100 97 98 87 79 74 70 75 73 87 60 44 46 46 43 40 41 39 41 46 48 44 37 26 20 14 10
100 100 100 100 100 99 99 100 100 100 92 87 78 72 60 54 45 44 43 42 43 46 44 44 41 38 44 46 48 40 38 30 23 19 12 11 8 7
81 77 81 94 96 92 90 83 74 74 69 64 62 59 53 47 44 41 41 41 43 44 42 41 44 44 49 58 40 29 20 15 12 10 9 8 6 5
65 78 80 70 77 75 66 65 59 62 60 59 60 56 48 42 41 42 43 42 39 38 39 38 41 37 28 19 17 15 15 12 8 7 7 6 5 5
63 63 64 64 64 61 58 59 60 54 52 51 49 48 48 44 41 38 33 31 31 26 26 26 20 21 18 19 13 13 10 7 7 7 6 5 6 6
57 57 56 55 54 52 50 49 49 48 44 43 39 32 30 29 23 20 21 22 20 20 19 16 14 15 14 13 10 9 9 6 7 6 6 7 8 7
34 31 30 27 23 24 24 23 23 25 22 22 20 19 18 15 16 18 21 19 17 15 15 12 10 9 10 10 8 9 7 7 7 6 9 9 8 7
29 28 25 21 20 19 19 18 16 15 15 15 16 14 13 12 14 14 13 13 13 12 12 9 8 8 8 8 9 7 8 8 7 9 10 10 8 9
20 20 20 22 29 28 24 20 14 11 11 11 10 11 11 10 10 11 10 10 9 7 7 8 8 8 9 9 7 9 8 8 10 11 11 10 10 12
15 14 13 12 12 12 13 12 12 12 10 9 10 8 7 6 6 7 6 6 7 7 8 8 9 10 8 7 10 9 8 10 12 12 11 11 13 16
12 10 9 9 8 7 7 7 6 6 6 6 6 6 6 6 6 6 7 8 8 7 9 11 10 7 8 10 9 8 11 12 12 12 11 12 13 18
8 8 7 7 6 6 6 6 6 5 5 5 5 5 6 6 6 7 7 7 8 11 11 7 6 10 10 8 8 10 12 12 14 14 14 14 18 22
7 7 6 6 5 5 5 5 5 5 5 5 5 6 6 7 7 7 7 9 11 8 6 7 12 10 9 8 9 12 13 14 16 15 15 19 28 32

GFSNE_250_rhum_135.txt.gz
RH
8 9 10 11 12 13 12 12 11 14 17 18 18 20 22 21 18 17 19 15 17 16 16 18 19 29 46 54 55 54 53 58 55 74 67 63 86 89
6 8 9 11 11 10 11 13 13 15 17 20 25 26 22 18 20 19 19 15 19 18 18 17 18 28 38 43 45 61 72 65 78 91 80 90 83 76
6 6 8 10 12 15 15 17 21 24 23 27 19 18 21 20 19 18 18 17 18 18 18 17 21 29 39 49 64 79 87 100 100 99 100 91 82 69
6 7 8 9 11 13 18 21 23 24 19 19 18 20 22 22 23 22 20 19 20 19 19 22 34 52 54 72 81 100 100 100 92 87 88 67 78 100
8 8 9 10 11 12 14 16 17 17 17 21 22 22 22 23 23 25 29 32 33 44 68 91 100 93 87 100 100 100 98 94 87 84 93 100 100 100
10 13 16 17 19 20 21 24 25 30 31 32 37 33 38 44 63 64 63 76 76 82 98 100 100 95 96 99 97 72 70 79 100 100 100 100 95 85
20 23 20 22 23 30 38 63 67 61 55 55 62 76 85 86 87 81 90 92 94 84 85 87 77 70 63 62 66 88 98 100 100 90 90 99 95 94
71 73 68 67 72 75 80 90 85 81 77 87 95 100 99 100 100 100 100 100 90 55 100 100 100 100 100 87 86 85 95 98 100 96 85 94 97 86
65 60 60 72 83 95 97 99 100 100 100 99 98 97 88 84 93 99 91 99 100 100 100 98 86 88 84 89 100 90 88 91 82 88 92 89 65 57
75 73 81 73 71 71 65 63 71 77 78 76 79 76 94 91 100 100 100 100 100 98 97 100 100 100 100 99 97 92 95 91 85 73 60 53 48 45
86 99 100 100 100 100 100 100 100 100 100 100 100 100 99 100 100 100 100 100 100 100 91 86 98 100 100 93 82 76 68 66 66 58 42 41 43 46
60 64 72 84 90 87 86 88 99 100 100 100 100 100 100 99 98 94 93 88 85 92 76 70 73 56 64 59 42 34 37 46 42 35 35 38 39 43
50 49 51 53 56 64 69 70 72 71 73 75 75 74 69 63 59 58 52 48 49 47 40 36 41 34 30 36 38 26 26 24 25 24 24 21 23 20
62 59 60 60 63 63 63 61 55 57 58 54 48 45 44 39 32 29 24 21 19 19 18 16 15 14 15 15 14 14 13 14 17 15 15 15 14 10
61 53 51 48 48 56 51 45 43 40 33 27 26 23 23 25 25 21 17 15 12 9 9 9 10 10 11 12 13 11 13 12 11 11 10 9 10 9
52 47 39 42 48 43 38 40 41 42 33 24 19 17 14 13 11 10 9 8 7 7 7 8 8 8 7 7 8 9 9 9 10 10 9 8 8 7
66 49 40 38 34 34 32 33 28 20 16 14 13 12 10 9 8 7 7 7 7 7 6 6 7 6 6 6 6 6 6 6 6 6 6 6 6 6
54 50 43 39 36 32 25 18 15 13 12 11 10 8 8 7 7 7 7 7 7 7 6 6 6 5 5 5 5 6 6 5 5 6 6 7 7 8
33 32 40 51 43 27 17 13 12 12 9 8 8 7 7 7 7 6 6 6 6 6 6 5 5 5 5 5 5 6 6 6 7 7 8 9 10 8
38 38 42 41 33 20 15 12 10 8 8 8 7 8 7 6 5 5 6 6 6 6 6 5 5 5 5 6 6 6 7 7 8 10 10 8 7 11
32 33 31 26 23 14 12 10 9 9 9 8 7 6 6 6 6 7 7 6 6 6 6 6 6 6 7 7 7 8 9 11 9 7 7 10 12 10
28 28 23 20 15 12 11 10 10 10 9 7 6 6 6 7 8 7 7 6 7 7 7 7 7 7 7 8 10 11 9 7 7 9 14 12 10 11
26 21 18 15 14 12 10 10 10 9 7 6 6 7 8 8 7 7 7 8 8 8 8 8 8 8 9 9 8 7 7 7 12 13 12 11 12 14

GFSNE_250_rhum_138.txt.gz
RH
6 6 7 9 13 19 73 30 94 67 48 11 11 14 25 26 27 29 28 26 21 23 24 22 24 18 18 18 17 16 17 18 18 28 46 58 79 78
6 6 6 6 8 10 14 15 18 25 30 27 23 21 24 28 33 27 30 29 30 26 26 22 21 18 18 21 22 19 19 21 25 31 49 77 83 96
6 6 7 8 9 9 10 12 13 12 14 17 23 27 27 28 49 38 40 34 30 29 22 20 22 24 25 22 23 24 27 32 53 75 90 100 100 100
7 7 7 7 8 8 10 10 13 16 18 24 26 28 45 48 42 36 35 29 23 26 29 34 28 26 27 28 31 36 42 72 93 100 100 100 100 100
8 8 8 8 9 9 9 10 11 12 14 18 23 33 29 30 30 26 32 45 65 52 45 54 52 52 56 63 68 77 72 87 97 100 100 100 100 99
12 13 12 12 11 11 12 13 14 17 19 20 22 26 30 34 44 50 63 67 68 77 94 88 78 78 73 72 80 95 100 100 100 96 91 94 95 96
23 22 18 20 23 23 19 19 22 21 23 27 31 43 58 65 69 74 83 97 86 91 95 92 93 94 94 99 100 97 100 94 90 93 82 77 87 89
46 49 62 64 56 58 63 62 67 79 82 88 84 79 86 86 92 88 82 100 89 76 78 73 79 68 64 67 64 63 59 66 96 100 100 100 98 94
81 76 68 74 86 99 93 79 76 80 82 84 89 88 83 100 94 78 88 92 96 91 86 94 65 66 71 66 77 77 85 94 92 81 93 89 92 98
79 82 83 89 89 85 83 83 80 87 87 84 85 81 79 80 75 76 76 70 74 78 81 92 95 100 100 100 98 82 68 71 78 79 75 75 73 70
52 56 56 54 53 55 58 62 67 83 91 99 100 100 100 100 100 100 100 100 100 100 96 88 97 99 99 86 77 73 70 70 64 59 54 47 41 36
75 72 69 63 61 57 60 60 57 51 49 52 56 57 58 58 61 66 68 68 62 61 50 46 40 35 42 43 30 24 27 27 26 24 24 25 20 19
64 58 55 52 54 54 46 38 36 40 46 53 53 56 62 59 57 53 49 44 40 33 32 31 29 22 16 15 22 16 13 10 9 9 10 12 12 13
70 62 54 47 42 42 42 43 42 41 39 38 36 34 32 28 26 27 26 24 21 22 20 16 15 13 12 11 11 10 10 9 8 8 8 9 10 11
85 74 63 55 50 42 41 41 43 44 41 36 32 29 25 19 16 14 12 11 10 9 8 7 7 7 8 8 9 8 9 7 7 7 7 7 7 7
90 77 70 58 46 32 28 27 25 26 27 27 29 23 16 13 12 11 10 8 7 6 6 6 7 7 7 6 7 7 7 7 6 6 6 6 6 6
82 75 73 67 40 35 31 21 20 21 20 21 19 14 12 12 10 8 7 7 6 7 7 7 7 6 6 6 5 6 5 5 5 5 5 5 5 5
83 75 82 63 39 28 25 20 20 18 17 15 14 12 11 10 8 7 7 7 7 6 6 5 5 5 6 6 5 5 5 5 5 5 5 5 5 5
86 87 77 57 29 26 23 21 19 17 14 12 11 10 10 8 8 8 7 6 5 5 6 6 6 6 6 6 5 5 5 5 5 5 5 6 6 6
92 86 81 54 31 28 21 20 18 15 13 11 10 10 10 9 8 7 6 6 6 7 7 7 7 6 6 6 6 6 6 6 7 7 7 7 7 9
90 91 70 46 33 26 20 18 17 14 12 10 9 10 10 9 7 6 8 9 8 8 7 7 7 7 8 8 8 8 8 8 8 8 8 9 9 8
75 86 70 49 30 24 20 17 15 12 11 10 10 10 10 8 6 8 10 9 9 9 9 9 8 8 8 8 8 9 10 10 11 10 8 7 7 11
67 78 52 28 23 20 18 16 13 12 11 10 11 11 10 7 7 10 9 8 8 9 8 9 9 9 10 10 10 10 9 8 8 7 7 9 15 16